20050715,000018,1395124,33.608390,-123.884648,17.200,32.944,0.173,0.142
20050715,000049,1395154,33.609051,-123.883118,17.201,32.951,0.173,0.140
20050715,000119,1395185,33.609651,-123.881688,17.201,32.946,0.179,0.147
20050715,000148,1395213,33.610316,-123.880186,17.201,32.947,0.185,0.152
20050715,000218,1395243,33.610996,-123.878698,17.201,32.953,0.179,0.145
20050715,000248,1395274,33.611603,-123.877181,17.201,32.949,0.179,0.144
20050715,000319,1395304,33.612261,-123.875673,17.206,32.951,0.179,0.144
20050715,000348,1395334,33.612915,-123.874136,17.201,32.956,0.179,0.144
20050715,000418,1395364,33.613578,-123.872618,17.205,32.949,0.179,0.145
20050715,000448,1395393,33.614205,-123.871101,17.201,32.949,0.179,0.146
20050715,000519,1395425,33.614893,-123.869573,17.206,32.949,0.179,0.147
20050715,000549,1395454,33.615498,-123.868123,17.209,32.947,0.179,0.147
20050715,000618,1395484,33.616158,-123.866616,17.207,32.954,0.179,0.148
20050715,000649,1395515,33.616803,-123.865045,17.210,32.948,0.179,0.149
20050715,000719,1395545,33.617441,-123.863580,17.212,32.947,0.179,0.151
20050715,000749,1395575,33.618061,-123.862080,17.220,32.947,0.179,0.149
20050715,000819,1395605,33.618700,-123.860571,17.221,32.954,0.173,0.142
20050715,000848,1395634,33.619285,-123.859120,17.223,32.948,0.179,0.149
20050715,000919,1395664,33.619948,-123.857565,17.224,32.952,0.179,0.153
20050715,000949,1395695,33.620601,-123.856160,17.228,32.951,0.179,0.156
20050715,001019,1395725,33.621245,-123.854600,17.228,32.950,0.179,0.172
20050715,001049,1395755,33.621863,-123.853066,17.228,32.947,0.173,0.151
20050715,001119,1395785,33.622515,-123.851560,17.231,32.949,0.173,0.146
20050715,001148,1395814,33.623121,-123.850116,17.232,32.950,0.179,0.152
20050715,001219,1395845,33.623741,-123.848513,17.230,32.952,0.173,0.149
20050715,001249,1395875,33.624358,-123.847083,17.230,32.952,0.179,0.150
20050715,001319,1395905,33.625011,-123.845525,17.234,32.958,0.179,0.147
20050715,001349,1395935,33.625650,-123.843996,17.234,32.972,0.179,0.146
20050715,001419,1395964,33.626290,-123.842483,17.231,32.961,0.179,0.145
20050715,001449,1395994,33.626910,-123.840951,17.231,32.961,0.179,0.144
20050715,001519,1396025,33.627535,-123.839506,17.232,32.956,0.179,0.144
20050715,001549,1396055,33.628191,-123.837966,17.234,32.958,0.185,0.151
20050715,001618,1396083,33.628805,-123.836518,17.232,32.960,0.179,0.147
20050715,001649,1396115,33.629456,-123.834975,17.237,32.957,0.179,0.145
20050715,001719,1396144,33.630088,-123.833528,17.241,32.958,0.185,0.154
20050715,001749,1396174,33.630750,-123.831966,17.240,32.966,0.179,0.144
20050715,001819,1396205,33.631373,-123.830520,17.244,32.957,0.179,0.143
20050715,001849,1396235,33.632005,-123.828968,17.245,32.951,0.179,0.142
20050715,001919,1396265,33.632615,-123.827526,17.245,32.998,0.179,0.141
20050715,001949,1396294,33.633241,-123.825938,17.246,32.997,0.179,0.141
20050715,002019,1396324,33.633886,-123.824456,17.252,32.996,0.179,0.142
20050715,002049,1396355,33.634505,-123.822940,17.249,32.997,0.179,0.143
20050715,002119,1396385,33.635161,-123.821456,17.252,32.999,0.185,0.150
20050715,002149,1396415,33.635795,-123.819943,17.258,32.996,0.179,0.143
20050715,002219,1396445,33.636453,-123.818390,17.257,32.996,0.179,0.144
20050715,002249,1396474,33.637076,-123.816933,17.250,33.006,0.179,0.144
20050715,002319,1396504,33.637711,-123.815430,17.253,33.003,0.179,0.144
20050715,002349,1396535,33.638331,-123.813905,17.251,33.004,0.179,0.144
20050715,002419,1396565,33.638976,-123.812430,17.255,33.000,0.185,0.149
20050715,002449,1396595,33.639623,-123.810900,17.254,33.004,0.179,0.142
20050715,002519,1396625,33.640261,-123.809395,17.253,33.005,0.185,0.147
20050715,002549,1396654,33.640926,-123.807878,17.254,32.999,0.179,0.142
20050715,002619,1396684,33.641543,-123.806355,17.258,33.001,0.185,0.149
20050715,002649,1396715,33.642193,-123.804830,17.259,33.002,0.185,0.150
20050715,002720,1396745,33.642830,-123.803250,17.262,32.999,0.179,0.143
20050715,002749,1396775,33.643468,-123.801798,17.264,33.002,0.185,0.150
20050715,002819,1396804,33.644116,-123.800280,17.264,33.003,0.185,0.149
20050715,002849,1396834,33.644753,-123.798775,17.260,33.009,0.185,0.148
20050715,002919,1396865,33.645400,-123.797246,17.261,33.012,0.185,0.147
20050715,002949,1396895,33.646043,-123.795728,17.265,33.001,0.185,0.147
20050715,003020,1396925,33.646690,-123.794216,17.265,33.004,0.185,0.148
20050715,003049,1396955,33.647328,-123.792690,17.267,33.001,0.185,0.149
20050715,003119,1396984,33.647965,-123.791170,17.273,33.000,0.185,0.146
20050715,003149,1397014,33.648611,-123.789663,17.272,33.003,0.185,0.146
20050715,003219,1397045,33.649256,-123.788148,17.278,33.001,0.185,0.145
20050715,003250,1397075,33.649893,-123.786608,17.278,33.002,0.185,0.143
20050715,003319,1397105,33.650540,-123.785095,17.278,33.003,0.185,0.142
20050715,003349,1397135,33.651181,-123.783573,17.280,33.006,0.185,0.141
20050715,003420,1397166,33.651821,-123.782000,17.280,33.003,0.190,0.146
20050715,003449,1397195,33.652448,-123.780563,17.279,33.005,0.185,0.140
20050715,003521,1397227,33.653096,-123.778998,17.278,33.006,0.190,0.145
20050715,003550,1397255,33.653728,-123.777465,17.282,33.003,0.185,0.139
20050715,003620,1397286,33.654390,-123.775975,17.285,33.001,0.190,0.144
20050715,003651,1397316,33.655015,-123.774466,17.284,33.004,0.190,0.143
20050715,003721,1397346,33.655645,-123.772970,17.287,33.005,0.190,0.143
20050715,003750,1397376,33.656285,-123.771471,17.285,33.005,0.190,0.142
20050715,003820,1397405,33.656905,-123.769940,17.287,33.008,0.190,0.142
20050715,003850,1397435,33.657545,-123.768425,17.287,33.008,0.190,0.141
20050715,003920,1397466,33.658150,-123.766918,17.291,33.002,0.196,0.145
20050715,003950,1397496,33.658776,-123.765425,17.291,33.002,0.196,0.144
20050715,004020,1397526,33.659421,-123.763926,17.290,33.003,0.196,0.145
20050715,004050,1397555,33.660026,-123.762423,17.291,32.999,0.201,0.150
20050715,004120,1397585,33.660668,-123.760925,17.291,33.003,0.196,0.144
20050715,004151,1397617,33.661258,-123.759406,17.291,33.001,0.201,0.149
20050715,004220,1397646,33.661865,-123.757903,17.292,33.003,0.201,0.149
20050715,004251,1397676,33.662501,-123.756393,17.291,33.001,0.201,0.149
20050715,004320,1397706,33.663116,-123.754861,17.291,33.003,0.201,0.148
20050715,004350,1397735,33.663756,-123.753371,17.289,33.001,0.201,0.147
20050715,004420,1397765,33.664375,-123.751846,17.286,33.003,0.201,0.146
20050715,004450,1397796,33.665003,-123.750338,17.289,33.001,0.201,0.145
20050715,004520,1397826,33.665640,-123.748820,17.289,33.003,0.207,0.150
20050715,004550,1397856,33.666271,-123.747311,17.288,33.000,0.207,0.149
20050715,004621,1397887,33.666856,-123.745766,17.289,33.000,0.207,0.150
20050715,004650,1397915,33.667506,-123.744300,17.289,33.002,0.207,0.150
20050715,004720,1397946,33.668135,-123.742783,17.285,33.001,0.213,0.156
20050715,004750,1397976,33.668718,-123.741256,17.287,32.999,0.201,0.146
20050715,004820,1398006,33.669363,-123.739776,17.288,32.998,0.213,0.159
20050715,004850,1398036,33.669953,-123.738265,17.289,32.994,0.207,0.154
20050715,004920,1398065,33.670573,-123.736773,17.289,32.994,0.207,0.155
20050715,004950,1398095,33.671170,-123.735271,17.289,32.995,0.213,0.162
20050715,005020,1398126,33.671805,-123.733800,17.288,33.000,0.207,0.157
20050715,005050,1398156,33.672418,-123.732280,17.287,33.000,0.201,0.151
20050715,005120,1398186,33.673061,-123.730790,17.288,32.997,0.207,0.157
20050715,005151,1398217,33.673650,-123.729293,17.288,32.999,0.207,0.157
20050715,005220,1398245,33.674276,-123.727825,17.289,33.001,0.201,0.152
20050715,005251,1398277,33.674876,-123.726325,17.293,32.989,0.201,0.153
20050715,005320,1398306,33.675476,-123.724813,17.294,32.995,0.201,0.153
20050715,005350,1398336,33.676100,-123.723325,17.295,33.001,0.207,0.159
20050715,005420,1398366,33.676713,-123.721836,17.302,32.995,0.201,0.154
20050715,005450,1398396,33.677320,-123.720338,17.304,32.992,0.201,0.154
20050715,005520,1398425,33.677946,-123.718866,17.304,32.994,0.201,0.155
20050715,005551,1398457,33.678591,-123.717301,17.307,32.995,0.207,0.161
20050715,005620,1398486,33.679165,-123.715828,17.306,33.005,0.201,0.155
20050715,005651,1398516,33.679825,-123.714355,17.307,32.996,0.201,0.155
20050715,005720,1398546,33.680480,-123.712891,17.308,33.000,0.201,0.154
20050715,005750,1398575,33.681156,-123.711420,17.308,32.994,0.201,0.154
20050715,005820,1398605,33.681791,-123.709933,17.310,32.998,0.201,0.154
20050715,005850,1398636,33.682431,-123.708436,17.306,33.000,0.196,0.148
20050715,005920,1398666,33.683126,-123.707035,17.314,32.994,0.196,0.148
20050715,005950,1398696,33.683761,-123.705553,17.315,32.994,0.201,0.153
20050715,010021,1398727,33.684395,-123.704126,17.313,32.999,0.201,0.152
20050715,010050,1398755,33.685046,-123.702665,17.315,32.995,0.196,0.146
20050715,010120,1398785,33.685703,-123.701215,17.318,32.997,0.196,0.146
20050715,010150,1398816,33.686338,-123.699736,17.314,33.000,0.201,0.151
20050715,010220,1398846,33.686985,-123.698270,17.315,33.000,0.196,0.145
20050715,010250,1398876,33.687598,-123.696776,17.317,32.996,0.196,0.145
20050715,010321,1398907,33.688253,-123.695330,17.317,32.999,0.196,0.145
20050715,010351,1398937,33.688951,-123.693831,17.318,32.998,0.201,0.150
20050715,010420,1398966,33.689571,-123.692468,17.322,32.997,0.207,0.156
20050715,010450,1398996,33.690265,-123.691036,17.324,33.000,0.201,0.150
20050715,010520,1399026,33.690955,-123.689586,17.322,33.002,0.196,0.144
20050715,010551,1399057,33.691663,-123.688168,17.322,33.005,0.201,0.150
20050715,010620,1399085,33.692366,-123.686746,17.330,32.993,0.201,0.149
20050715,010650,1399115,33.693056,-123.685328,17.329,33.000,0.201,0.149
20050715,010720,1399146,33.693768,-123.683911,17.331,32.998,0.201,0.148
20050715,010750,1399176,33.694471,-123.682488,17.328,33.003,0.201,0.148
20050715,010820,1399206,33.695233,-123.681115,17.333,32.999,0.207,0.154
20050715,010851,1399237,33.695988,-123.679653,17.338,33.007,0.201,0.148
20050715,010921,1399267,33.696741,-123.678271,17.339,33.002,0.196,0.142
20050715,010950,1399296,33.697471,-123.676938,17.337,33.006,0.201,0.148
20050715,011020,1399326,33.698220,-123.675505,17.336,33.045,0.207,0.153
20050715,011050,1399356,33.698965,-123.674101,17.337,33.045,0.201,0.147
20050715,011120,1399386,33.699730,-123.672720,17.337,33.044,0.201,0.147
20050715,011151,1399417,33.700468,-123.671255,17.341,33.040,0.201,0.147
20050715,011220,1399445,33.701181,-123.669896,17.339,33.044,0.207,0.152
20050715,011250,1399476,33.701928,-123.668496,17.334,32.254,0.201,0.147
20050715,011321,1399506,33.702666,-123.667036,17.338,33.041,0.207,0.154
20050715,011350,1399536,33.703393,-123.665696,17.337,33.043,0.207,0.154
20050715,011421,1399567,33.704163,-123.664268,17.338,33.042,0.207,0.154
20050715,011450,1399595,33.704865,-123.662893,17.338,33.042,0.207,0.153
20050715,011520,1399625,33.705616,-123.661486,17.335,33.046,0.201,0.146
20050715,011551,1399657,33.706383,-123.660041,17.337,33.040,0.201,0.147
20050715,011621,1399686,33.707120,-123.658680,17.338,33.040,0.201,0.148
20050715,011650,1399716,33.707863,-123.657276,17.340,33.036,0.207,0.156
20050715,011721,1399747,33.708643,-123.655835,17.341,33.037,0.213,0.162
20050715,011751,1399777,33.709381,-123.654396,17.339,33.041,0.207,0.156
20050715,011820,1399806,33.710111,-123.653021,17.340,33.039,0.207,0.155
20050715,011851,1399836,33.710826,-123.651605,17.337,33.039,0.201,0.147
20050715,011920,1399866,33.711601,-123.650255,17.340,33.039,0.201,0.146
20050715,011950,1399896,33.712340,-123.648846,17.339,33.040,0.207,0.151
20050715,012021,1399927,33.713130,-123.647393,17.338,33.040,0.201,0.146
20050715,012051,1399957,33.713886,-123.646025,17.334,33.040,0.201,0.147
20050715,012121,1399987,33.714655,-123.644618,17.336,33.033,0.207,0.153
20050715,012151,1400016,33.715433,-123.643160,17.335,33.035,0.207,0.152
20050715,012221,1400046,33.716183,-123.641751,17.333,33.038,0.207,0.151
20050715,012251,1400077,33.716951,-123.640353,17.334,33.026,0.207,0.151
20050715,012321,1400107,33.717700,-123.638941,17.337,33.033,0.207,0.151
20050715,012351,1400137,33.718461,-123.637530,17.335,33.034,0.207,0.151
20050715,012421,1400166,33.719140,-123.636141,17.335,33.034,0.207,0.150
20050715,012451,1400196,33.719676,-123.634565,17.337,33.034,0.207,0.149
20050715,012521,1400227,33.720083,-123.633535,17.335,33.034,0.207,0.148
20050715,012551,1400257,33.720403,-123.633111,17.338,33.030,0.207,0.147
20050715,012621,1400287,33.720600,-123.632938,17.344,33.026,0.207,0.146
20050715,012651,1400317,33.720726,-123.632845,17.353,33.023,0.207,0.146
20050715,012721,1400346,33.720831,-123.632783,17.360,33.027,0.207,0.146
20050715,012751,1400376,33.720921,-123.632771,17.347,33.036,0.207,0.147
20050715,012821,1400407,33.720996,-123.632790,17.344,33.033,0.207,0.146
20050715,012851,1400437,33.721061,-123.632868,17.341,33.034,0.207,0.145
20050715,012920,1400465,33.721098,-123.632955,17.338,33.026,0.207,0.145
20050715,012951,1400497,33.721103,-123.633090,17.339,33.033,0.207,0.146
20050715,013021,1400526,33.721136,-123.633201,17.339,33.033,0.213,0.152
20050715,013051,1400557,33.721178,-123.633295,17.337,33.030,0.207,0.146
20050715,013121,1400587,33.721238,-123.633368,17.335,33.032,0.213,0.151
20050715,013151,1400617,33.721311,-123.633376,17.336,33.031,0.207,0.145
20050715,013221,1400647,33.721383,-123.633388,17.336,33.031,0.207,0.145
20050715,013252,1400678,33.721438,-123.633438,17.335,33.029,0.207,0.144
20050715,013321,1400706,33.721490,-123.633498,17.337,33.030,0.213,0.150
20050715,013351,1400737,33.721508,-123.633596,17.334,33.029,0.207,0.144
20050715,013421,1400767,33.721505,-123.633741,17.335,33.029,0.207,0.144
20050715,013452,1400797,33.721520,-123.633836,17.333,33.027,0.207,0.145
20050715,013521,1400827,33.721530,-123.633926,17.333,33.032,0.207,0.145
20050715,013551,1400856,33.721556,-123.633961,17.333,33.028,0.207,0.145
20050715,013621,1400886,33.721571,-123.633961,17.333,33.029,0.207,0.146
20050715,013651,1400917,33.721601,-123.633898,17.331,33.029,0.207,0.146
20050715,013721,1400947,33.721670,-123.633836,17.331,33.029,0.207,0.147
20050715,013751,1400977,33.721765,-123.633776,17.330,33.029,0.207,0.147
20050715,013821,1401007,33.721865,-123.633760,17.330,33.027,0.207,0.146
20050715,013851,1401036,33.721918,-123.633835,17.331,33.030,0.213,0.151
20050715,013921,1401067,33.721941,-123.633933,17.330,33.028,0.213,0.151
20050715,013951,1401097,33.721900,-123.634128,17.328,33.030,0.207,0.145
20050715,014021,1401127,33.721891,-123.634323,17.328,33.027,0.207,0.145
20050715,014051,1401157,33.721895,-123.634516,17.328,33.027,0.207,0.145
20050715,014121,1401186,33.721910,-123.634705,17.328,33.025,0.207,0.145
20050715,014151,1401216,33.721971,-123.634790,17.328,33.023,0.213,0.151
20050715,014221,1401247,33.722046,-123.634881,17.331,33.030,0.207,0.145
20050715,014251,1401277,33.722148,-123.634955,17.330,33.026,0.207,0.145
20050715,014321,1401307,33.722235,-123.635073,17.331,33.025,0.201,0.139
20050715,014351,1401337,33.722328,-123.635185,17.333,33.024,0.207,0.145
20050715,014422,1401368,33.722385,-123.635331,17.333,33.026,0.201,0.140
20050715,014451,1401396,33.722445,-123.635493,17.333,33.025,0.213,0.151
20050715,014521,1401427,33.722533,-123.635606,17.333,33.023,0.213,0.151
20050715,014551,1401457,33.722615,-123.635721,17.332,33.021,0.207,0.145
20050715,014621,1401487,33.722726,-123.635785,17.330,33.024,0.207,0.145
20050715,014652,1401518,33.722800,-123.635941,17.330,33.023,0.207,0.144
20050715,014722,1401548,33.722905,-123.636036,17.329,33.024,0.207,0.144
20050715,014751,1401577,33.722978,-123.636148,17.329,33.021,0.207,0.144
20050715,014822,1401607,33.723066,-123.636263,17.328,33.022,0.207,0.145
20050715,014852,1401637,33.723110,-123.636388,17.330,33.027,0.213,0.150
20050715,014921,1401667,33.723101,-123.636393,17.329,33.021,0.207,0.145
20050715,014952,1401698,33.723028,-123.636401,17.330,33.022,0.207,0.144
20050715,015022,1401728,33.722946,-123.636368,17.328,33.020,0.207,0.144
20050715,015052,1401758,33.722900,-123.636268,17.326,33.025,0.207,0.144
20050715,015122,1401787,33.722885,-123.636251,17.325,33.025,0.207,0.144
20050715,015151,1401817,33.722935,-123.636186,17.328,33.021,0.207,0.144
20050715,015222,1401848,33.722991,-123.636150,17.327,33.023,0.207,0.144
20050715,015252,1401878,33.723045,-123.636165,17.328,33.023,0.213,0.149
20050715,015322,1401908,33.723045,-123.636245,17.327,33.023,0.207,0.144
20050715,015352,1401937,33.723021,-123.636331,17.329,33.022,0.213,0.149
20050715,015422,1401967,33.722951,-123.636500,17.330,33.021,0.218,0.154
20050715,015452,1401998,33.722923,-123.636696,17.331,33.021,0.207,0.143
20050715,015522,1402028,33.722893,-123.636950,17.330,33.018,0.207,0.143
20050715,015552,1402058,33.722948,-123.637138,17.328,33.022,0.207,0.143
20050715,015622,1402088,33.723018,-123.637253,17.330,33.022,0.207,0.143
20050715,015652,1402117,33.723108,-123.637366,17.328,33.022,0.213,0.149
20050715,015722,1402147,33.723211,-123.637448,17.328,33.021,0.207,0.143
20050715,015752,1402178,33.723328,-123.637578,17.329,33.018,0.218,0.154
20050715,015822,1402208,33.723471,-123.637690,17.329,33.019,0.213,0.148
20050715,015852,1402238,33.723593,-123.637833,17.328,33.021,0.213,0.148
20050715,015922,1402267,33.723695,-123.637991,17.327,33.020,0.207,0.143
20050715,015952,1402297,33.723775,-123.638121,17.326,33.019,0.213,0.148
20050715,020022,1402328,33.723871,-123.638241,17.329,33.018,0.207,0.142
20050715,020052,1402358,33.723955,-123.638376,17.328,33.018,0.207,0.142
20050715,020122,1402388,33.724031,-123.638473,17.326,33.022,0.207,0.142
20050715,020152,1402418,33.724093,-123.638605,17.324,33.018,0.213,0.147
20050715,020222,1402447,33.724188,-123.638706,17.324,33.018,0.207,0.142
20050715,020252,1402477,33.724275,-123.638818,17.323,33.018,0.207,0.142
20050715,020323,1402509,33.724371,-123.638953,17.325,33.020,0.207,0.142
20050715,020352,1402538,33.724461,-123.639105,17.327,33.016,0.207,0.142
20050715,020422,1402568,33.724591,-123.639230,17.327,33.015,0.213,0.147
20050715,020453,1402599,33.724676,-123.639413,17.328,33.017,0.213,0.147
20050715,020523,1402629,33.724800,-123.639520,17.326,33.014,0.201,0.137
20050715,020552,1402657,33.724901,-123.639673,17.326,33.017,0.207,0.142
20050715,020622,1402688,33.725016,-123.639791,17.327,33.016,0.207,0.141
20050715,020652,1402718,33.725153,-123.639898,17.326,33.015,0.213,0.146
20050715,020722,1402748,33.725280,-123.640040,17.328,33.017,0.213,0.146
20050715,020753,1402779,33.725428,-123.640175,17.325,33.014,0.207,0.140
20050715,020822,1402807,33.725521,-123.640293,17.324,33.015,0.207,0.140
20050715,020852,1402838,33.725540,-123.640363,17.324,33.014,0.207,0.141
20050715,020922,1402868,33.725586,-123.640405,17.325,33.012,0.213,0.146
20050715,020952,1402898,33.725658,-123.640488,17.326,33.013,0.207,0.141
20050715,021022,1402928,33.725731,-123.640613,17.326,33.012,0.207,0.142
20050715,021052,1402957,33.725805,-123.640726,17.325,33.014,0.207,0.142
20050715,021122,1402987,33.725893,-123.640856,17.325,33.011,0.207,0.142
20050715,021152,1403018,33.726008,-123.640981,17.326,33.012,0.207,0.142
20050715,021222,1403048,33.726113,-123.641128,17.324,33.012,0.207,0.141
20050715,021252,1403078,33.726215,-123.641255,17.322,33.014,0.207,0.141
20050715,021322,1403108,33.726308,-123.641400,17.322,33.010,0.207,0.141
20050715,021352,1403137,33.726398,-123.641498,17.324,33.010,0.207,0.141
20050715,021423,1403169,33.726486,-123.641615,17.325,33.011,0.207,0.141
20050715,021452,1403198,33.726571,-123.641688,17.328,33.009,0.207,0.141
20050715,021522,1403228,33.726655,-123.641816,17.326,33.010,0.213,0.146
20050715,021553,1403259,33.726765,-123.641923,17.327,33.012,0.207,0.141
20050715,021622,1403287,33.726866,-123.642046,17.325,33.012,0.213,0.146
20050715,021652,1403317,33.726963,-123.642146,17.326,33.011,0.207,0.140
20050715,021723,1403349,33.727081,-123.642260,17.326,33.010,0.213,0.145
20050715,021752,1403378,33.727166,-123.642381,17.324,33.009,0.207,0.140
20050715,021822,1403408,33.727231,-123.642525,17.324,33.009,0.207,0.140
20050715,021853,1403439,33.727311,-123.642623,17.322,33.009,0.207,0.140
20050715,021922,1403467,33.727386,-123.642701,17.324,33.006,0.213,0.145
20050715,021953,1403499,33.727486,-123.642750,17.322,33.010,0.207,0.140
20050715,022023,1403528,33.727571,-123.642840,17.323,33.005,0.207,0.140
20050715,022052,1403558,33.727638,-123.642948,17.320,33.009,0.213,0.146
20050715,022122,1403588,33.727686,-123.643043,17.322,33.003,0.213,0.146
20050715,022153,1403619,33.727723,-123.643166,17.324,33.006,0.207,0.140
20050715,022222,1403647,33.727788,-123.643215,17.324,33.004,0.207,0.140
20050715,022252,1403678,33.727861,-123.643285,17.324,33.006,0.207,0.140
20050715,022323,1403708,33.727941,-123.643301,17.325,33.003,0.207,0.140
20050715,022353,1403738,33.728023,-123.643358,17.324,33.004,0.213,0.145
20050715,022422,1403768,33.728091,-123.643445,17.324,33.003,0.213,0.145
20050715,022452,1403797,33.728136,-123.643575,17.324,33.003,0.207,0.140
20050715,022522,1403827,33.728210,-123.643701,17.324,33.003,0.207,0.140
20050715,022552,1403858,33.728318,-123.643781,17.324,33.002,0.207,0.140
20050715,022622,1403888,33.728420,-123.643938,17.324,32.995,0.213,0.145
20050715,022652,1403918,33.728510,-123.644030,17.324,33.001,0.213,0.145
20050715,022722,1403948,33.728605,-123.644135,17.324,33.001,0.207,0.139
20050715,022752,1403977,33.728671,-123.644276,17.324,33.003,0.207,0.139
20050715,022823,1404009,33.728788,-123.644400,17.322,33.002,0.207,0.139
20050715,022853,1404038,33.728918,-123.644523,17.321,33.001,0.213,0.144
20050715,022922,1404068,33.729033,-123.644643,17.320,33.001,0.213,0.144
20050715,022952,1404098,33.729145,-123.644781,17.319,33.000,0.213,0.144
20050715,023022,1404127,33.729251,-123.644920,17.322,32.998,0.213,0.144
20050715,023052,1404157,33.729310,-123.645083,17.322,32.999,0.207,0.139
20050715,023122,1404188,33.729356,-123.645263,17.322,32.998,0.207,0.138
20050715,023152,1404218,33.729445,-123.645421,17.323,33.001,0.207,0.138
20050715,023222,1404248,33.729511,-123.645496,17.321,32.999,0.207,0.138
20050715,023253,1404279,33.729593,-123.645600,17.323,32.999,0.207,0.138
20050715,023322,1404307,33.729700,-123.645671,17.326,32.998,0.207,0.138
20050715,023352,1404337,33.729766,-123.645810,17.327,33.000,0.201,0.133
20050715,023422,1404368,33.729860,-123.645945,17.327,33.000,0.207,0.138
20050715,023453,1404398,33.729950,-123.646146,17.327,32.998,0.201,0.133
20050715,023523,1404429,33.730083,-123.646276,17.328,33.001,0.201,0.133
20050715,023552,1404458,33.730191,-123.646420,17.327,32.996,0.207,0.138
20050715,023623,1404489,33.730328,-123.646538,17.325,32.998,0.207,0.138
20050715,023652,1404518,33.730471,-123.646633,17.325,32.994,0.207,0.138
20050715,023723,1404548,33.730588,-123.646791,17.326,32.995,0.207,0.138
20050715,023753,1404578,33.730678,-123.646896,17.328,32.994,0.207,0.138
20050715,023823,1404609,33.730761,-123.647045,17.326,32.996,0.201,0.133
20050715,023852,1404637,33.730866,-123.647173,17.326,32.995,0.207,0.138
20050715,023923,1404669,33.730973,-123.647350,17.326,33.001,0.207,0.138
20050715,023952,1404698,33.731085,-123.647456,17.325,32.994,0.201,0.133
20050715,024022,1404728,33.731180,-123.647623,17.325,32.991,0.201,0.133
20050715,024053,1404758,33.731303,-123.647766,17.324,32.997,0.207,0.138
20050715,024123,1404789,33.731415,-123.647888,17.324,32.992,0.207,0.138
20050715,024152,1404817,33.731486,-123.648058,17.324,32.990,0.201,0.133
20050715,024222,1404847,33.731581,-123.648176,17.324,32.995,0.201,0.133
20050715,024252,1404878,33.731665,-123.648345,17.324,32.992,0.207,0.138
20050715,024324,1404910,33.731768,-123.648485,17.323,32.991,0.207,0.138
20050715,024353,1404939,33.731890,-123.648640,17.323,32.990,0.207,0.138